Location: Champseau
(45.8333°N, 1.7667°E)
Time: 06:05:06
(UTC+00:00)

Terra - Pass Details

Date: 18 April 2021
Orbit: 701 x 703 km, 98.2° (Epoch: 15 May)

Event Time Altitude Azimuth Distance (km) Brightness Sun altitude
Exits shadow 21:28:58 60° 69° (ENE) 805 1.9 -24.6°
Drops below altitude 10° 21:33:37 10° 353° (N) 2,181 5.1 -25.1°
Sets 21:35:55 0° 350° (N) 3,104 6.1 -25.3°
